Simultaneous Nadir Overpasses (SNOs) Predictions

Prediction of SNOs between NOAA-19 and TERRA Satellite Orbit:

Table of predicted SNOs for the next 14.0 days since TLE Epoch: 2/21/2016
Index Date (NOAA-19) Time (NOAA-19) Lat,Lon (NOAA-19) SZA (NOAA-19 ) Date (TERRA) Time (TERRA) Lat,Lon (TERRA) SZA (TERRA ) Distance(km) Time Diff (sec)
1 02/22/2016 16:12:41 73.24, -57.23 83.39 02/22/2016 16:12:48 73.26, -57.17 83.42 3.13 7
2 02/22/2016 17:03:32 -73.04, 110.49 96.81 02/22/2016 17:02:19 -73.08, 110.09 96.79 13.49 73
3 02/24/2016 20:55:50 73.30,-128.10 82.65 02/24/2016 20:57:01 73.28,-128.20 82.63 3.52 71
4 02/24/2016 21:46:43 -73.21, 39.38 97.46 02/24/2016 21:46:30 -73.20, 39.28 97.47 3.08 13
5 02/27/2016 02:29:52 -73.27, -31.52 98.21 02/27/2016 02:30:41 -73.29, -31.60 98.20 3.01 49
6 02/27/2016 03:20:58 73.20, 135.87 81.72 02/27/2016 03:20:08 73.20, 135.87 81.71 0.53 50
7 02/29/2016 08:04:07 73.28, 64.96 80.96 02/29/2016 08:04:18 73.29, 65.00 80.97 2.03 11
8 02/29/2016 08:55:00 -73.19,-127.56 99.14 02/29/2016 08:53:48 -73.17,-127.62 99.17 2.94 72
9 03/02/2016 12:47:16 73.36, -5.96 80.20 03/02/2016 12:48:28 73.34, -5.94 80.19 1.69 72
10 03/02/2016 13:38:09 -73.26, 161.53 99.90 03/02/2016 13:37:57 -73.27, 161.55 99.90 1.16 12
11 03/04/2016 18:21:18 -73.34, 90.61 100.67 03/04/2016 18:22:06 -73.34, 90.64 100.68 1.29 48
12 03/04/2016 19:12:23 73.24,-101.92 79.22 03/04/2016 19:11:33 73.24,-101.92 79.21 0.17 50




NCC Satellite Simultaneous Nadir Overpasses (SNOs) Prediction Service
